Temp
-5 -6 -6 -6 -6 -6 -6 -6 -6 -6 -6 -6 -5 -6 -6 -6 -6 -6 -6 -6 -6 -6 -7 -7 -6 -7 -7 -7 -7 -7 -7 -7 -7
-7 -7 -7 -6 -6 -6 -7 -6 -6 -6 -6 -6 -5 -6 -6 -6 -6 -6 -6 -6 -6 -6 -6 -6 -6 -6 -6 -6 -6 -7 -7 -7 -7
-8 -7 -7 -7 -7 -7 -6 -6 -6 -6 -6 -7 -6 -5 -6 -6 -6 -6 -6 -6 -6 -6 -6 -6 -6 -6 -6 -7 -6 -6 -6 -7 -7
-8 -8 -7 -7 -7 -7 -7 -6 -6 -6 -6 -6 -7 -6 -6 -6 -6 -6 -6 -6 -6 -7 -7 -7 -7 -6 -6 -6 -6 -6 -6 -6 -6
-8 -8 -8 -8 -7 -7 -7 -7 -7 -6 -6 -6 -7 -7 -6 -6 -7 -6 -6 -6 -6 -6 -7 -7 -7 -7 -7 -6 -6 -6 -6 -6 -6
-9 -8 -8 -7 -8 -7 -7 -7 -7 -6 -6 -6 -6 -6 -6 -6 -6 -6 -7 -6 -6 -6 -6 -6 -7 -7 -7 -7 -7 -7 -7 -6 -6
-9 -8 -9 -9 -8 -9 -9 -8 -8 -7 -7 -7 -7 -7 -7 -6 -6 -6 -6 -7 -7 -6 -6 -6 -6 -6 -6 -6 -7 -7 -6 -6 -6
-9 -9 -8 -8 -8 -9 -8 -8 -8 -8 -8 -7 -7 -7 -6 -6 -6 -6 -6 -6 -6 -7 -7 -6 -6 -6 -6 -7 -7 -7 -6 -6 -7
-10 -9 -9 -9 -9 -9 -8 -8 -8 -8 -8 -8 -7 -7 -7 -7 -8 -7 -6 -6 -7 -7 -7 -7 -7 -7 -7 -7 -7 -7 -7 -7 -7
-10 -10 -10 -10 -10 -9 -9 -9 -9 -9 -9 -8 -8 -8 -8 -8 -8 -7 -7 -7 -7 -7 -7 -7 -8 -7 -7 -7 -7 -7 -7 -7 -7
-11 -10 -10 -10 -10 -10 -9 -9 -9 -9 -9 -9 -8 -8 -8 -9 -9 -7 -7 -7 -7 -7 -7 -8 -8 -8 -8 -7 -7 -8 -7 -7 -7
-11 -11 -11 -11 -11 -11 -10 -10 -10 -9 -9 -9 -9 -9 -9 -9 -9 -8 -8 -8 -7 -7 -6 -6 -7 -8 -8 -8 -8 -8 -8 -7 -7
-11 -11 -11 -11 -11 -11 -11 -10 -10 -10 -9 -9 -9 -9 -9 -9 -9 -9 -9 -8 -8 -8 -7 -7 -8 -8 -7 -7 -7 -8 -8 -8 -8
-12 -12 -12 -12 -11 -11 -11 -11 -11 -11 -10 -10 -10 -10 -10 -10 -9 -9 -9 -8 -9 -9 -8 -8 -8 -8 -8 -7 -8 -7 -7 -7 -8
-13 -13 -12 -12 -13 -12 -12 -11 -11 -11 -11 -10 -10 -10 -10 -10 -10 -9 -9 -9 -9 -9 -9 -9 -8 -8 -8 -8 -8 -8 -8 -8 -7
-14 -13 -13 -12 -12 -12 -13 -12 -12 -12 -11 -11 -11 -10 -10 -10 -10 -10 -10 -9 -9 -9 -9 -9 -9 -9 -9 -9 -8 -8 -9 -9 -9
-14 -14 -13 -13 -13 -13 -13 -13 -13 -12 -12 -12 -12 -12 -12 -11 -11 -11 -11 -10 -10 -10 -10 -10 -10 -9 -9 -9 -9 -9 -9 -9 -9
-15 -15 -14 -14 -14 -13 -13 -13 -13 -13 -13 -13 -13 -13 -13 -13 -12 -12 -12 -11 -11 -11 -11 -10 -10 -10 -10 -9 -9 -9 -9 -9 -9
-15 -15 -15 -15 -15 -15 -14 -14 -14 -14 -14 -14 -14 -13 -13 -13 -13 -13 -13 -13 -12 -12 -12 -12 -11 -11 -11 -10 -10 -10 -10 -9 -9
-15 -15 -15 -16 -15 -15 -15 -15 -15 -15 -14 -14 -14 -14 -14 -14 -13 -14 -14 -13 -13 -13 -13 -13 -12 -12 -12 -11 -11 -11 -10 -10 -10
Height
5914 5914 5917 5919 5922 5924 5926 5928 5930 5933 5934 5935 5937 5939 5941 5944 5946 5948 5948 5949 5951 5952 5954 5955 5956 5957 5958 5959 5961 5963 5963 5964 5966
5911 5913 5914 5916 5918 5920 5922 5923 5928 5930 5932 5933 5933 5935 5938 5940 5943 5945 5947 5948 5949 5950 5952 5954 5955 5956 5957 5958 5959 5960 5962 5963 5965
5906 5908 5910 5912 5913 5916 5917 5921 5924 5926 5928 5929 5930 5932 5935 5937 5939 5941 5944 5946 5948 5949 5950 5952 5953 5954 5955 5957 5958 5959 5961 5962 5963
5903 5904 5906 5907 5908 5908 5912 5915 5919 5920 5922 5925 5927 5929 5932 5934 5936 5938 5939 5942 5944 5946 5947 5950 5952 5953 5954 5956 5957 5958 5959 5960 5961
5899 5902 5903 5904 5905 5906 5907 5911 5914 5917 5919 5922 5924 5926 5927 5929 5930 5932 5932 5935 5939 5942 5943 5945 5947 5949 5951 5953 5954 5956 5957 5958 5959
5894 5897 5899 5901 5901 5901 5902 5905 5909 5913 5915 5917 5919 5921 5922 5924 5922 5924 5927 5930 5934 5936 5939 5940 5942 5944 5946 5949 5950 5951 5953 5954 5956
5889 5892 5894 5894 5896 5897 5900 5902 5904 5906 5907 5908 5913 5915 5916 5916 5916 5917 5919 5924 5928 5931 5933 5934 5937 5939 5941 5943 5945 5946 5948 5950 5951
5883 5887 5889 5892 5893 5896 5898 5899 5901 5903 5903 5903 5907 5907 5908 5908 5907 5910 5913 5916 5920 5923 5926 5928 5930 5933 5935 5937 5939 5942 5944 5946 5947
5876 5880 5883 5886 5888 5890 5892 5894 5895 5896 5898 5897 5896 5899 5901 5903 5904 5905 5906 5910 5914 5916 5918 5921 5924 5927 5928 5929 5934 5937 5939 5940 5941
5868 5871 5875 5877 5881 5883 5885 5887 5889 5890 5892 5893 5893 5893 5894 5896 5900 5903 5904 5903 5908 5909 5912 5913 5915 5919 5921 5924 5927 5929 5931 5933 5934
5859 5864 5867 5870 5873 5877 5879 5880 5882 5884 5885 5887 5888 5890 5890 5892 5895 5898 5900 5899 5902 5902 5903 5907 5909 5910 5914 5917 5920 5922 5923 5925 5927
5848 5853 5858 5862 5864 5868 5871 5873 5875 5877 5879 5881 5883 5884 5886 5888 5889 5891 5892 5895 5896 5896 5897 5897 5898 5903 5905 5909 5912 5913 5916 5918 5920
5838 5842 5847 5851 5854 5858 5861 5864 5867 5869 5871 5873 5876 5879 5880 5882 5883 5885 5886 5889 5891 5892 5891 5893 5894 5897 5898 5897 5900 5904 5905 5908 5910
5827 5832 5835 5838 5842 5846 5850 5854 5857 5859 5862 5865 5867 5870 5873 5876 5878 5880 5882 5884 5884 5885 5886 5887 5888 5889 5890 5890 5891 5892 5895 5897 5899
5815 5819 5823 5827 5830 5834 5837 5840 5844 5848 5852 5856 5858 5860 5863 5866 5869 5871 5873 5875 5876 5878 5878 5880 5881 5881 5882 5884 5884 5885 5886 5888 5888
5804 5806 5809 5814 5818 5822 5826 5830 5834 5838 5841 5845 5848 5851 5853 5855 5858 5860 5862 5864 5866 5868 5870 5871 5872 5873 5873 5876 5877 5877 5878 5879 5881
5792 5794 5797 5801 5805 5809 5814 5818 5822 5827 5830 5833 5835 5837 5840 5842 5845 5847 5850 5851 5853 5855 5858 5861 5862 5864 5865 5865 5867 5868 5868 5869 5871
5781 5783 5785 5789 5793 5797 5801 5805 5808 5811 5814 5817 5820 5823 5826 5829 5831 5834 5837 5839 5841 5843 5845 5847 5849 5851 5852 5853 5855 5857 5858 5859 5860
5771 5773 5775 5776 5779 5782 5786 5790 5793 5796 5798 5801 5805 5807 5810 5813 5816 5819 5822 5824 5827 5829 5831 5833 5835 5837 5838 5840 5841 5843 5845 5846 5848
5759 5761 5763 5764 5765 5768 5771 5773 5776 5780 5782 5785 5788 5791 5794 5797 5801 5804 5806 5809 5811 5813 5815 5818 5821 5822 5824 5825 5827 5828 5829 5830 5832
Wind_Speed
23 22 21 21 21 18 21 24 12 14 12 15 15 15 15 15 14 14 15 15 13 11 12 11 12 13 13 13 12 11 10 10 11
19 21 20 22 21 17 20 18 15 13 15 15 15 15 15 16 15 15 15 17 18 16 14 13 13 13 13 13 12 13 13 13 12
22 21 25 26 27 25 24 20 21 19 17 16 16 14 16 18 18 16 17 16 20 18 16 14 13 12 13 14 14 12 13 14 14
21 20 20 26 30 34 26 24 25 21 24 19 16 18 17 20 19 20 19 20 18 18 18 18 16 15 13 14 15 14 14 15 15
25 24 22 25 26 29 28 29 28 23 24 21 19 19 25 22 23 25 24 24 24 21 21 19 18 19 17 17 16 15 15 15 16
25 27 29 26 28 34 27 34 29 26 23 30 25 22 25 27 27 25 26 27 28 27 25 22 23 23 21 19 18 19 18 18 17
24 27 25 22 25 20 20 19 21 23 29 26 24 28 30 32 32 28 24 30 31 31 29 27 25 27 26 25 23 23 23 21 19
24 26 25 22 23 25 25 26 24 25 27 28 34 34 33 24 21 23 26 30 34 34 33 31 29 29 28 27 28 26 25 24 21
33 31 27 24 23 28 29 29 27 26 23 28 33 20 28 13 9 14 27 32 37 36 34 33 33 33 33 31 29 29 29 28 26
36 35 34 31 28 27 30 31 32 29 26 27 24 24 20 17 14 15 17 26 34 35 37 36 37 38 38 34 30 30 31 31 30
40 37 34 32 33 33 34 29 27 25 20 24 25 23 22 17 18 21 20 14 16 25 26 27 38 42 42 37 36 35 33 33 32
39 40 39 36 34 35 35 33 30 30 31 22 25 26 21 17 17 19 17 16 17 14 17 21 18 31 41 42 40 41 41 39 36
37 36 37 39 40 37 30 30 34 35 35 32 30 28 23 20 16 13 13 14 12 13 12 13 15 17 19 28 36 45 46 43 42
41 39 36 37 39 44 44 42 38 32 34 35 32 30 26 23 23 23 22 22 21 21 20 21 21 22 21 20 24 31 46 49 54
45 44 41 40 41 38 43 43 43 44 44 40 38 34 37 34 33 33 32 31 30 28 25 25 25 23 21 23 23 24 29 26 26
38 39 43 44 44 42 43 43 45 44 46 46 47 49 48 44 39 38 38 38 36 33 32 31 30 29 27 25 24 27 27 27 36
42 42 43 42 43 46 44 46 48 51 52 52 47 47 46 46 43 43 41 41 41 38 38 36 36 36 35 32 28 29 30 31 32
42 44 47 47 46 45 46 48 50 53 54 53 51 47 48 49 49 48 46 45 46 46 46 45 44 43 43 42 41 37 35 37 38
42 43 45 45 43 46 47 50 50 49 52 54 55 54 53 53 55 54 54 52 51 52 49 49 50 51 50 48 48 46 44 43 44
37 38 41 42 42 46 56 56 58 57 54 57 57 58 55 57 58 59 59 56 51 50 50 53 55 56 59 59 55 55 53 51 50
Wind_Direction
230 207 208 206 205 212 220 238 225 207 223 226 230 220 220 221 215 220 223 222 232 223 216 218 223 218 216 212 215 217 212 203 205
214 220 214 209 206 209 219 226 216 222 226 226 234 233 227 232 231 224 230 232 231 234 236 219 228 223 225 223 221 223 222 216 213
208 213 220 211 211 213 215 213 230 231 232 226 232 235 233 234 229 229 235 235 236 231 239 231 233 233 230 233 232 230 230 228 225
211 218 219 218 222 218 214 211 213 228 226 231 244 241 243 239 232 234 228 237 235 234 237 243 250 251 245 246 239 235 235 238 237
222 226 224 220 218 215 208 211 217 232 229 240 243 235 246 248 234 231 227 231 237 233 234 240 239 234 244 246 253 254 248 243 243
235 229 236 237 235 224 226 212 216 224 228 245 241 245 251 253 244 236 234 232 236 235 235 234 238 239 245 245 247 249 253 249 246
230 240 245 244 257 232 261 259 249 242 247 260 237 239 250 255 249 241 230 234 235 239 237 234 238 243 245 248 246 245 242 248 250
234 238 232 244 248 232 237 259 257 259 264 250 245 242 241 241 239 230 229 231 235 235 239 238 236 241 244 249 251 248 249 246 247
234 241 244 246 247 244 248 253 257 263 268 277 263 239 231 249 309 265 242 242 238 238 239 240 242 240 242 241 248 253 252 250 249
241 242 245 248 251 252 252 258 258 261 264 269 273 272 247 262 278 278 272 251 248 242 243 243 242 245 243 242 245 247 249 252 252
252 248 249 250 248 250 254 260 255 251 261 259 264 264 269 268 266 267 267 275 267 270 274 250 250 245 250 245 246 248 249 248 252
254 251 250 246 246 247 248 251 256 257 261 260 255 261 261 255 254 252 263 262 261 264 253 259 255 260 254 249 254 255 256 254 252
252 252 251 246 242 244 245 245 245 249 250 250 251 252 248 247 249 248 247 241 243 265 281 289 278 277 269 259 259 256 255 257 254
260 254 252 249 247 245 242 242 241 245 245 238 234 235 241 246 249 249 251 254 263 269 273 274 273 275 280 283 269 259 256 257 256
259 258 253 253 250 248 248 248 249 247 245 243 237 236 256 259 261 260 259 260 264 264 262 262 261 264 266 272 276 269 262 264 260
250 255 256 256 252 251 250 248 240 237 237 242 245 253 260 260 257 256 257 258 258 256 255 256 256 256 258 257 260 266 267 265 255
255 257 255 254 254 251 251 247 244 245 249 251 252 255 253 255 251 255 253 253 253 254 255 254 252 252 256 255 253 256 262 264 266
250 254 259 257 255 252 246 241 241 243 244 246 251 251 251 254 250 250 250 250 250 254 258 259 256 254 257 257 260 258 256 259 263
250 253 253 254 254 254 254 253 251 249 250 249 247 251 252 247 246 249 250 251 252 252 255 254 255 256 255 254 257 260 260 258 259
252 255 258 260 258 257 251 247 247 249 246 246 246 248 247 246 247 249 251 250 252 254 255 254 252 252 254 255 257 265 263 260 259